This is the latest recevied weather packets stored in our database for station/object DJ4RO-13. If no packets are shown the sender has not sent any weather packets the latest 10 day(s).
| Time | Temp. | Humidity | Pressure | Rain* | Wind** | Luminosity | Snow |
|---|---|---|---|---|---|---|---|
| 1777296829 | 16.67° C | 38% | 1027.9 hPa | 0 mm | - | 391 W/m² | - |
| 1777296509 | 16.67° C | 39% | 1028.1 hPa | 0 mm | - | 432 W/m² | - |
| 1777296189 | 17.78° C | 39% | 1027.7 hPa | 0 mm | - | 438 W/m² | - |
| 1777295869 | 17.78° C | 37% | 1028 hPa | 0 mm | - | 430 W/m² | - |
| 1777295549 | 16.67° C | 36% | 1027.9 hPa | 0 mm | - | 451 W/m² | - |
| 1777295229 | 16.67° C | 36% | 1028 hPa | 0 mm | - | 435 W/m² | - |
| 1777294909 | 17.22° C | 34% | 1028 hPa | 0 mm | - | 429 W/m² | - |
| 1777294589 | 16.67° C | 36% | 1028 hPa | 0 mm | - | 437 W/m² | - |
| 1777294269 | 16.67° C | 36% | 1028.2 hPa | 0 mm | - | 427 W/m² | - |
| 1777293949 | 16.11° C | 37% | 1028.2 hPa | 0 mm | - | 431 W/m² | - |
| 1777293632 | 16.11° C | 36% | 1028.2 hPa | 0 mm | - | 437 W/m² | - |
| 1777293325 | 16.67° C | 37% | 1028 hPa | 0 mm | - | 449 W/m² | - |
| 1777293005 | 16.67° C | 38% | 1028.3 hPa | 0 mm | - | 463 W/m² | - |
| 1777292685 | 16.67° C | 38% | 1028.3 hPa | 0 mm | - | 461 W/m² | - |
| 1777292365 | 16.67° C | 38% | 1028.4 hPa | 0 mm | - | 463 W/m² | - |
| 1777292045 | 16.67° C | 36% | 1028.3 hPa | 0 mm | - | 489 W/m² | - |
| 1777291725 | 16.11° C | 38% | 1028.2 hPa | 0 mm | - | 502 W/m² | - |
| 1777291405 | 16.11° C | 39% | 1028.4 hPa | 0 mm | - | 480 W/m² | - |
| 1777291085 | 16.67° C | 38% | 1028.4 hPa | 0 mm | - | 504 W/m² | - |
| 1777290765 | 16.11° C | 36% | 1028.5 hPa | 0 mm | - | 514 W/m² | - |
| 1777290445 | 16.11° C | 39% | 1028.5 hPa | 0 mm | - | 514 W/m² | - |
| 1777290125 | 16.11° C | 38% | 1028.6 hPa | 0 mm | - | 552 W/m² | - |
| 1777289805 | 16.11° C | 39% | 1028.5 hPa | 0 mm | - | 530 W/m² | - |
| 1777289485 | 16.11° C | 39% | 1028.7 hPa | 0 mm | - | 553 W/m² | - |
| 1777289165 | 16.11° C | 40% | 1028.6 hPa | 0 mm | - | 531 W/m² | - |
* Rain latest hour (hover to see other rain measurements)
** Current wind speed in m/s (hover to see current wind gust speed)